RH
4 3 3 13 19 23 31 46 51 52 52 54 54 54 51 39 38 34 30 17 16 16 16 16 16 17 19 42 42 39 39 29 32 41 43 41 45 58 70 67 63 57 55 56 58 60 65 53 53
3 3 6 17 23 26 30 36 49 51 52 52 50 42 37 23 17 16 15 15 15 16 16 16 17 17 18 19 19 22 41 42 38 40 46 40 36 48 57 64 67 67 64 61 61 63 61 57 55
3 3 9 13 22 25 25 27 42 47 45 39 30 18 20 16 16 14 15 15 15 15 15 16 16 17 17 18 19 20 20 25 31 37 42 46 42 43 52 59 67 76 76 72 66 67 70 68 65
4 4 10 16 19 21 21 23 22 26 17 16 14 14 15 14 14 14 13 14 14 14 14 14 15 16 17 18 20 20 20 20 19 19 19 19 23 38 44 58 65 67 71 74 77 73 71 74 75
4 6 12 20 21 21 14 15 16 15 16 13 12 12 13 12 12 12 13 13 14 14 14 15 16 17 19 20 20 21 22 24 24 23 21 20 19 19 21 43 56 65 72 75 80 82 77 80 79
5 10 13 20 23 22 15 16 14 13 15 13 11 11 11 11 13 13 12 13 13 15 17 18 19 20 21 22 22 23 24 24 25 25 26 25 23 21 20 20 26 72 75 77 88 87 80 76 86
8 11 13 18 22 21 14 14 12 12 12 13 13 11 10 11 12 12 13 15 17 17 17 16 16 16 15 14 15 15 16 17 20 22 25 26 28 27 24 22 21 32 34 49 78 84 83 75 76
11 12 15 18 16 16 13 12 11 11 11 13 12 11 11 11 12 13 15 16 14 10 9 8 8 8 8 8 8 8 8 9 10 13 16 20 23 26 26 25 25 22 21 22 23 30 46 52 61
13 14 14 16 14 16 11 10 14 15 11 11 12 12 12 13 14 14 11 8 7 8 10 10 11 10 10 10 10 10 11 11 10 10 10 11 14 17 21 23 19 22 26 24 21 20 19 20 33
14 14 14 18 20 18 14 15 14 12 11 10 12 12 15 14 11 7 7 8 10 9 7 6 6 8 10 11 12 12 12 12 12 11 11 11 10 9 12 15 16 14 15 21 25 26 24 22 21
14 13 11 13 16 13 12 16 18 14 11 12 14 15 13 9 7 8 10 9 6 6 8 14 19 20 19 18 16 13 11 12 12 13 14 13 12 12 11 12 13 13 11 11 12 13 16 20 23
14 12 11 10 10 13 15 16 12 12 12 13 14 11 8 8 9 9 6 6 9 16 19 19 19 14 11 8 7 6 6 7 8 8 9 11 14 16 14 13 13 13 11 10 10 9 9 8 8
14 12 11 10 11 12 11 11 13 13 13 12 10 9 9 9 7 6 9 14 17 18 20 18 14 11 8 6 6 7 8 8 10 11 12 12 14 15 18 18 14 14 12 12 11 10 9 9 9
12 10 9 8 10 10 11 13 13 12 12 10 9 9 9 7 7 12 15 16 17 18 14 11 14 13 9 8 8 9 10 12 13 12 11 12 16 20 24 27 19 15 14 12 12 12 12 11 11
9 8 9 11 12 13 14 12 12 10 10 10 10 9 7 8 13 16 16 16 10 5 5 10 20 20 19 19 18 18 15 14 16 18 20 19 23 28 33 36 25 18 16 16 14 14 14 14 13
10 12 12 12 13 13 13 11 10 10 10 10 9 7 9 14 17 15 11 4 4 4 5 11 20 24 26 28 30 30 30 26 24 26 31 38 27 33 38 33 31 24 19 19 17 15 15 15 15
14 14 14 15 14 13 12 10 10 10 10 9 7 8 14 18 15 8 5 4 5 7 6 8 11 12 12 11 14 22 33 39 38 38 41 49 43 57 56 50 45 39 24 21 19 19 16 17 17
15 16 15 14 12 12 10 9 10 10 9 8 7 11 18 18 10 6 5 5 7 6 5 5 5 5 5 6 6 6 10 24 36 38 37 41 48 50 37 25 24 29 34 30 23 26 21 20 24
17 16 13 12 11 10 10 9 9 10 8 7 7 13 20 20 14 9 6 7 8 5 4 5 7 8 8 9 9 8 8 9 20 30 32 32 38 36 27 20 17 20 27 32 31 28 28 24 22
13 12 11 12 11 12 10 9 8 7 6 6 8 15 22 22 16 10 7 9 10 5 10 16 20 25 27 24 15 12 9 8 9 18 26 26 24 19 16 17 16 13 14 20 23 24 20 18 16
12 12 13 13 11 10 9 8 7 6 5 8 13 20 26 23 17 9 8 15 9 11 20 40 46 50 49 48 51 41 15 8 7 8 11 20 21 12 8 10 13 13 9 9 10 11 12 14 16
13 13 13 11 9 9 10 11 7 6 7 10 17 26 28 25 18 9 11 18 15 15 28 34 32 29 26 22 23 47 56 22 8 8 8 8 10 12 8 7 7 10 10 7 7 9 10 10 15
13 12 10 9 9 10 12 16 8 7 8 12 20 26 29 24 16 11 13 28 32 30 23 26 32 33 30 19 20 27 51 60 36 13 10 8 7 7 7 6 5 6 7 8 7 7 8 8 10
9 8 9 9 11 29 19 21 10 13 14 14 19 28 29 25 14 13 17 26 26 24 31 39 26 17 20 28 28 34 46 58 63 55 24 13 11 9 8 5 5 5 5 6 7 7 7 7 8
10 10 10 33 47 47 33 33 8 14 12 13 20 30 29 26 14 14 22 21 23 32 39 34 28 36 40 40 39 40 55 62 62 64 64 39 18 14 12 9 6 5 5 6 6 6 7 7 8
9 8 10 22 44 33 12 13 10 8 6 13 15 18 23 19 17 17 19 26 39 41 40 45 46 45 42 41 44 47 51 60 62 64 65 64 50 19 13 12 10 7 6 6 6 7 7 7 7
12 11 11 12 21 40 11 7 7 10 9 10 12 15 18 20 20 20 26 41 44 48 50 49 48 44 35 34 40 51 53 56 58 59 58 61 63 52 25 14 12 11 10 8 6 7 7 8 8
13 15 17 16 28 39 18 11 8 11 18 18 17 18 20 24 24 29 36 50 50 48 53 52 50 46 36 26 36 38 48 50 55 52 54 56 64 64 58 44 33 23 16 13 11 10 10 9 8
21 21 19 20 22 50 52 21 12 24 37 44 38 33 32 32 32 34 49 55 53 51 57 57 53 37 24 32 35 34 41 47 52 51 54 60 63 66 67 65 62 59 56 52 42 29 18 12 11
28 28 31 28 32 32 40 32 31 34 41 41 49 53 56 56 54 54 55 57 55 57 60 59 57 40 26 38 36 32 39 48 51 51 52 58 66 67 67 65 66 70 70 68 67 64 56 46 36
Wind_Speed
7 9 12 16 7 4 9 9 11 10 7 4 2 1 1 5 4 1 5 4 5 5 5 6 6 7 7 7 8 10 10 11 12 13 13 13 14 14 13 13 12 12 11 10 9 8 8 7 6
9 13 18 13 6 7 10 10 11 10 6 4 2 2 0 2 2 2 3 5 5 6 7 8 9 9 9 11 12 12 11 13 13 14 15 15 15 16 15 15 15 16 14 13 12 11 10 9 8
12 17 15 10 6 9 10 11 11 10 7 6 4 2 1 0 1 2 4 6 7 8 9 10 11 12 12 13 14 14 14 14 16 17 17 18 17 17 18 18 18 18 16 16 15 14 13 12 11
15 18 13 7 9 8 10 12 11 9 7 6 3 2 1 2 3 4 5 8 9 10 11 13 14 15 15 16 16 16 17 17 17 18 20 20 20 21 21 21 20 20 19 18 18 17 17 16 14
17 17 10 10 11 10 11 11 10 8 7 6 4 3 4 4 5 6 7 10 12 13 15 16 17 18 19 19 19 19 19 20 20 20 21 21 22 23 24 24 25 23 22 21 20 20 18 19 19
15 14 10 13 12 13 12 10 9 9 6 5 4 5 6 7 6 7 11 13 15 17 18 19 20 20 20 20 21 21 22 23 23 23 23 24 24 24 25 26 27 26 26 25 23 22 21 21 20
12 11 11 12 12 13 12 10 10 8 7 6 6 6 9 8 10 14 14 15 16 18 20 21 21 22 23 24 24 25 25 26 26 26 27 27 27 27 27 27 28 29 31 32 31 28 25 25 25
12 11 9 12 12 12 11 10 9 7 7 7 7 6 8 13 15 16 18 19 19 20 22 22 23 25 26 27 28 28 29 29 30 30 30 30 30 30 30 31 31 31 31 31 32 33 34 33 30
12 9 9 10 12 9 10 9 8 8 8 10 10 11 13 14 16 18 19 20 20 21 22 23 24 25 26 28 29 30 31 31 32 32 33 33 33 33 32 32 33 34 34 33 32 32 31 30 33
13 10 9 9 10 8 9 9 8 8 11 12 14 15 17 18 19 19 20 21 23 24 25 25 26 25 26 26 28 30 31 33 34 34 34 35 35 35 35 35 35 35 35 36 35 33 32 31 29
13 11 9 10 11 10 11 11 11 11 13 15 16 17 19 19 20 20 23 26 25 24 23 21 21 23 26 28 29 30 32 32 33 34 35 36 37 36 36 35 36 36 34 33 34 33 33 32 32
12 11 11 11 12 13 12 12 13 13 15 16 17 17 17 20 22 25 26 23 20 17 18 21 23 26 27 29 29 30 32 34 35 37 37 36 37 38 39 37 35 34 33 32 30 30 30 29 29
11 10 11 11 13 13 13 14 14 15 16 16 17 18 20 22 25 24 20 18 17 19 21 22 23 25 26 28 30 31 33 35 36 37 38 38 38 37 36 39 38 34 31 30 29 27 27 27 27
9 10 11 12 12 13 14 14 14 15 17 16 18 20 22 24 21 19 16 18 20 21 22 23 24 23 24 25 28 30 32 33 34 35 36 36 35 37 35 34 36 35 30 28 27 26 25 25 25
9 10 12 12 13 13 13 16 14 13 16 17 21 21 23 19 15 14 16 17 18 21 23 22 20 21 21 22 24 27 30 31 31 30 33 33 30 32 34 30 30 31 29 26 25 25 24 24 24
9 9 10 11 11 13 13 15 15 15 19 20 23 22 19 15 14 15 16 17 21 24 23 20 19 19 20 20 22 25 27 28 29 30 30 31 32 29 27 26 24 25 25 24 22 22 22 23 23
6 6 8 10 12 14 15 16 16 19 22 20 22 20 16 14 14 14 15 19 21 22 20 19 20 20 21 23 23 23 26 28 28 28 27 26 30 25 22 20 20 19 20 22 21 22 21 22 22
5 8 10 11 14 16 19 21 18 21 21 23 21 19 15 14 13 13 16 19 21 20 19 19 19 20 20 23 24 25 27 28 29 28 27 24 25 24 22 21 19 16 18 19 20 21 20 20 19
7 9 11 14 16 21 22 23 18 21 24 25 23 19 16 14 13 15 18 20 21 21 19 18 19 20 21 23 24 25 26 27 28 29 26 24 24 24 23 22 18 14 16 16 16 19 20 19 18
9 10 13 15 15 21 24 27 25 25 23 24 21 19 17 15 14 15 17 20 19 17 17 17 18 19 21 22 23 24 24 24 25 27 25 23 21 23 22 21 19 15 14 14 15 16 19 18 17
10 12 14 16 18 22 26 27 16 14 16 15 17 18 17 13 13 14 16 18 17 16 16 15 17 18 20 22 24 24 24 23 23 24 25 24 23 21 22 21 20 17 15 14 14 15 16 17 17
11 13 15 17 17 10 18 11 23 22 19 18 18 17 15 13 13 13 14 16 16 17 16 16 18 19 22 24 25 25 24 23 22 22 22 23 22 21 20 21 21 21 19 17 15 15 16 17 19
12 14 16 19 19 19 14 9 6 10 17 16 17 16 15 14 12 12 13 15 16 18 20 20 22 24 27 28 27 26 25 24 23 22 22 21 20 20 21 21 19 19 19 19 19 18 17 17 19
13 15 17 18 13 4 5 4 7 6 3 9 14 15 15 13 12 12 14 17 21 24 26 24 24 26 28 29 28 27 26 26 23 23 22 22 21 19 19 19 19 19 19 19 19 19 20 19 19
7 7 5 4 2 3 3 8 8 10 9 6 8 13 12 12 13 13 14 20 25 28 27 23 22 25 26 26 28 28 27 25 24 23 23 21 21 21 19 18 17 17 18 19 19 20 21 22 22
7 6 2 4 2 6 14 8 3 8 7 4 5 8 11 13 14 15 19 24 27 24 21 23 25 26 28 28 27 27 27 24 24 23 22 22 21 19 18 18 17 17 17 18 19 20 21 22 24
4 1 1 4 4 4 6 8 10 6 4 5 6 10 11 13 15 18 22 28 26 24 25 25 26 29 32 33 30 26 24 24 24 23 22 22 21 20 19 18 18 17 17 17 18 19 20 21 22
8 5 2 3 1 4 7 10 7 5 10 10 11 10 12 15 17 21 26 32 27 25 26 28 30 33 34 33 32 29 25 23 22 22 22 20 20 20 20 20 20 20 20 19 19 20 21 22 23
7 6 6 4 4 4 2 5 7 12 7 11 11 12 15 18 22 27 33 31 27 26 27 29 31 34 34 31 29 28 26 24 22 22 21 19 20 20 20 19 19 20 21 22 22 22 23 23 23
12 12 11 6 5 7 3 15 6 6 15 22 21 20 21 24 28 29 29 27 25 26 28 29 30 33 32 30 28 26 24 22 21 20 20 19 19 18 18 18 18 18 19 19 20 21 23 24 25
Wind_Direction
199 175 161 152 160 177 166 158 167 162 171 158 153 84 358 348 14 59 331 339 345 341 329 328 323 316 311 297 293 295 298 292 293 295 293 290 288 286 286 286 288 287 285 287 289 293 296 304 313
183 167 159 162 175 160 168 175 173 176 182 175 201 256 118 341 18 352 334 325 326 320 317 321 319 314 308 300 294 290 289 291 285 282 283 281 279 278 278 280 277 274 275 277 281 281 281 287 295
172 166 164 174 167 165 174 176 184 190 201 210 199 149 159 125 346 307 305 306 309 310 312 314 310 308 304 298 296 294 290 285 284 283 280 280 277 275 276 275 273 276 277 277 273 272 275 279 284
169 165 176 187 169 160 176 175 182 186 174 169 172 169 193 242 293 292 297 303 304 302 303 306 304 301 298 296 295 294 292 289 286 282 279 277 275 273 270 267 268 268 271 271 272 271 271 273 273
169 168 177 182 169 168 167 169 173 178 166 163 177 232 251 262 279 292 298 296 299 300 303 302 300 299 298 298 296 294 292 290 287 284 281 279 276 272 268 266 265 263 263 266 262 262 265 268 269
173 173 184 177 171 167 170 172 178 181 185 180 197 234 267 282 279 282 296 298 300 302 302 302 301 299 299 296 292 290 289 289 288 286 284 281 278 274 272 269 265 262 259 257 259 256 257 261 262
180 185 186 181 174 173 179 180 186 195 201 224 231 252 275 272 280 296 300 300 302 304 303 301 301 300 298 296 296 294 292 290 288 286 284 283 282 279 275 272 270 263 262 259 255 256 256 257 257
183 195 186 181 183 182 187 193 195 210 236 253 263 264 273 287 295 301 305 307 307 306 304 305 303 300 299 298 296 294 293 292 289 286 283 281 280 279 278 276 272 268 265 263 261 259 258 258 258
187 195 193 188 181 190 191 194 203 224 247 263 277 284 288 296 301 306 308 308 308 308 308 306 302 300 299 297 295 295 294 292 290 289 287 285 282 278 275 274 273 271 269 266 263 262 261 260 256
188 196 192 189 189 195 200 213 224 247 266 279 288 292 300 306 308 309 308 307 308 308 308 305 303 302 300 299 298 297 296 295 294 291 288 286 283 279 276 273 271 270 268 268 266 263 263 263 259
194 202 200 202 203 212 220 230 245 262 273 281 288 299 307 306 306 311 310 310 310 312 308 309 308 307 305 303 303 303 302 300 298 295 292 288 283 280 276 272 269 268 268 267 267 266 263 261 260
201 207 209 209 217 223 230 245 257 269 279 286 294 299 300 305 308 308 307 309 311 311 307 307 308 308 306 306 306 307 306 304 301 299 298 295 293 287 279 274 269 265 266 265 264 264 265 263 261
211 210 216 218 224 234 245 259 273 281 287 293 298 300 301 304 305 305 307 309 312 312 310 311 310 310 313 312 310 308 307 305 304 303 302 301 298 293 289 281 271 266 262 263 262 259 259 261 261
216 218 224 229 235 245 258 269 278 286 291 296 296 299 303 303 302 304 308 311 315 315 315 315 316 314 313 313 313 311 310 309 308 309 304 300 302 298 292 285 278 266 260 256 259 258 255 257 259
214 217 229 236 246 259 274 282 287 290 292 290 294 298 301 299 298 297 304 309 311 314 313 313 314 315 316 316 315 318 316 312 310 313 316 315 319 304 289 286 277 266 258 253 252 255 256 256 258
207 223 242 257 271 281 286 284 290 285 289 295 299 301 298 295 296 303 308 314 318 315 314 312 311 312 311 315 321 324 320 319 320 320 326 328 327 311 296 284 273 264 256 254 252 254 259 261 260
232 251 255 271 276 283 284 286 289 287 292 292 296 294 289 287 293 300 310 316 318 314 313 308 305 308 310 313 317 322 324 328 329 329 328 335 326 315 303 292 279 267 260 255 251 252 253 259 261
240 255 271 278 283 283 283 285 288 287 290 292 290 284 275 278 287 299 312 317 318 319 315 309 308 311 316 319 319 321 321 326 328 329 331 336 327 316 310 302 291 279 267 259 256 257 254 254 257
268 275 281 286 289 290 288 286 285 278 284 282 278 268 264 269 285 304 313 319 323 320 320 323 325 326 328 330 330 328 321 319 322 322 329 330 328 322 318 309 300 292 281 272 266 266 262 255 251
280 283 287 292 293 297 295 293 290 286 277 267 257 252 254 265 286 303 312 316 319 323 324 327 333 336 338 336 334 330 326 322 319 318 321 322 323 321 318 314 304 295 289 282 273 266 266 263 258
281 289 291 294 299 299 302 303 300 293 286 263 242 238 243 259 279 295 306 321 328 325 322 333 334 339 342 341 338 334 330 327 321 319 318 318 319 322 324 316 303 297 290 283 276 269 263 263 262
288 292 294 297 305 295 305 289 293 292 273 253 239 233 241 256 271 292 311 328 324 316 314 321 321 328 330 330 330 332 332 327 324 323 321 319 314 314 316 316 311 305 299 290 276 264 263 260 259
291 295 299 298 296 297 291 274 285 259 258 252 239 237 241 255 273 292 309 322 323 318 313 309 309 314 315 318 321 324 326 324 323 322 325 324 322 319 317 312 306 300 300 299 293 284 277 273 267
293 299 299 289 287 271 269 248 282 261 262 243 233 232 240 254 274 288 305 316 320 320 324 317 309 309 315 320 323 324 323 320 320 321 320 320 321 321 322 320 311 302 296 294 290 286 286 283 277
301 323 309 339 7 232 293 289 263 284 285 274 221 227 244 258 280 286 298 312 316 315 318 318 316 319 323 324 322 323 326 323 316 316 318 316 316 317 319 319 315 308 305 301 295 289 283 282 281
299 290 259 225 283 292 289 253 266 318 325 266 228 241 251 265 279 290 301 313 322 322 321 322 327 328 328 329 324 320 319 322 319 312 311 313 313 311 312 311 308 306 300 297 297 295 292 289 286
294 285 247 259 304 306 264 290 312 352 329 269 258 271 261 279 282 290 306 321 320 318 320 322 324 328 329 327 326 325 321 320 319 315 310 306 308 309 310 310 309 304 298 294 290 288 286 286 285
249 256 294 242 359 295 287 295 292 16 6 326 296 285 286 285 283 298 307 318 315 310 316 320 325 327 325 324 322 323 321 318 314 313 311 307 305 308 310 311 311 310 309 307 302 296 291 288 286
256 243 228 228 242 188 301 277 291 323 32 355 337 320 307 295 290 295 301 308 307 306 313 319 325 328 326 323 319 319 320 318 315 312 311 309 307 308 308 309 309 309 309 307 303 300 297 295 292
252 247 238 214 217 221 239 279 274 176 341 321 304 292 286 286 290 299 303 303 303 306 308 312 321 329 328 324 322 319 317 317 315 311 308 306 304 302 302 303 303 304 304 302 300 299 298 298 295